Regional Weather Roundup
Issued by NWS State College, PA

Home | Current Version | Previous Version | Graphics & Text | Print | Product List | Glossary On
Versions: 1 2 3 4 5 6 7 8 9 10 11 12 13 14 15 16 17 18 19 20 21 22 23 24 25 26 27 28 29 30 31 32 33 34 35 36 37 38 39 40 41 42 43 44 45 46 47 48 49 50
000
ASUS41 KCTP 141010
RWRCTP

REGIONAL WEATHER ROUNDUP
NATIONAL WEATHER SERVICE STATE COLLEGE PA
500 AM EST SUN FEB 14 2016

Note: "fair" indicates few or no clouds below 12,000 feet with no
significant weather and/or obstructions to visibility.

* = STATION THAT DOES NOT REPORT PRECIPITATION /E.G. RAIN...SNOW...ETC/
    THUNDER OR FOG.

PAZ002>004-007>009-013>016-020>023-029>032-141100-
WESTERN PENNSYLVANIA

CITY           SKY/WX    TMP DP  RH WIND       PRES   REMARKS
ERIE           CLOUDY    11   1  64 NW6       30.45R WCI   1
MEADVILLE      LGT SNOW   6   1  80 W3        30.37R
FRANKLIN*      CLOUDY     1  -8  66 W6        30.37S WCI -10
NEW CASTLE     FAIR      -3  -7  82 CALM      30.44R
BEAVER COUNTY  NOT AVBL
BUTLER*        CLOUDY    -2  -6  84 CALM      30.43R
PITTSBURGH INT FLURRIES   0  -4  83 CALM      30.42R
PITTSBURGH     CLEAR      4   0  83 W7        30.41R WCI  -8
INDIANA*       PTCLDY    -4  -8  84 CALM      30.41R
LATROBE        FLURRIES   0  -4  85 SW7       30.43R WCI -13
WASHINGTON CO* CLOUDY    -6 -11  77 CALM      30.41S
$$

PAZ004>006-010>012-017>019-024>028-033>037-041-042-045-046-049>053-141100-
CENTRAL PENNSYLVANIA

CITY           SKY/WX    TMP DP  RH WIND       PRES   REMARKS
BRADFORD       PTCLDY    -7 -12  79 NW3       30.26R
DUBOIS         PTCLDY    -3  -7  82 CALM      30.31R
CLEARFIELD     PTCLDY    -1  -6  79 W5        30.35R WCI -11
JOHNSTOWN      PTCLDY     1  -7  68 W9        30.25R WCI -14
ALTOONA        PTCLDY     4  -4  69 NW7       30.35R WCI  -8
STATE COLLEGE  MOCLDY     2  -5  75 SW3       30.37R
WILLIAMSPORT   PTCLDY     2 -10  57 N6        30.44R WCI  -9
SELINSGROVE    PTCLDY     1  -7  68 N6        30.44R WCI -10
FT INDIANTOWN  CLEAR      7  -9  49 VRB7      30.40R WCI  -5
CAPITAL CITY   PTCLDY     9  -6  50 W10       30.43R WCI  -5
HARRISBURG     PTCLDY    10  -4  53 NW14      30.43R WCI  -6
YORK           PTCLDY    -3 -11  68 CALM      30.42R
$$

PAZ038>040-043-044-047-048-054-055-060>062-067>071-141100-
EASTERN PENNSYLVANIA

CITY           SKY/WX    TMP DP  RH WIND       PRES   REMARKS
SCRANTON       MOCLDY    -3 -15  56 N13       30.36R WCI -22
MOUNT POCONO   CLOUDY    -8 -17  64 NW15G26   30.18R WCI -30
ALLENTOWN      CLEAR      4 -11  50 NW20G25   30.40R WCI -17
QUAKERTOWN*    SUNNY      5  -9  51 NW3       30.39R
READING        CLEAR      6  -8  52 NW9       30.42R WCI  -8
LANCASTER      PTCLDY     5  -7  57 NW7       30.42R WCI  -7
COATESVILLE    SUNNY      7  -8  51 NW10      30.39R WCI  -8
POTTSTOWN      CLEAR      6  -9  50 NW12G21   30.43R WCI  -9
BLUE BELL        N/A      7  -9  47 NW6       30.41R WCI  -3
DOYLESTOWN     CLEAR      3 -12  49 NW5       30.39R WCI  -6
WILLOW GROVE   NOT AVBL
NORTH PHILA    CLEAR      9 -10  42 NW14G21   30.45R WCI  -7
PHILADELPHIA   PTCLDY    10 -10  40 NW16      30.45R WCI  -7
$$



USA.gov is the U.S. government's official web portal to all federal, state and local government web resources and services.